Regional Weather Roundup
Issued by NWS

Home | Current Version | Previous Version | Graphics & Text | Print | Product List | Glossary On
Versions: 1 2 3 4 5 6 7 8 9 10 11 12 13 14 15 16 17 18 19 20 21 22 23 24 25 26 27 28 29 30 31 32 33 34 35 36 37 38 39 40 41 42 43 44 45 46 47 48 49 50
000
ASUS43 KOAX 272202
RWRNE

WEATHER ROUNDUP FOR NEBRASKA
NATIONAL WEATHER SERVICE OMAHA NE
400 PM CST SAT DEC 27 2014

NOTES: SATELLITE DATA IS BEING USED TO AUGMENT CLOUD COVER ABOVE
       12000 FEET.
       "FAIR" INDICATES FEW OR NO CLOUDS BELOW 12,000 FEET WITH NO
       SIGNIFICANT WEATHER AND/OR OBSTRUCTIONS TO VISIBILITY.

  * THESE STATIONS DO NOT REPORT WEATHER SUCH AS RAIN...SNOW OR FOG.

NEZ001>004-019>022-054>056-272300-
NEBRASKA PANHANDLE

CITY           SKY/WX    TMP DP  RH WIND       PRES   REMARKS
SCOTTSBLUFF    SUNNY     21  10  62 CALM      30.08S
ALLIANCE       SUNNY     20  10  65 W14       30.05F WCI   7
CHADRON        SUNNY     24  12  60 W8        30.06F WCI  15
KIMBALL        SUNNY     20   9  62 W12       30.03F WCI   8
SIDNEY         SUNNY     16   8  71 SW10      30.09F WCI   4
$$

NEZ057>060-069>072-079>082-272300-
SOUTHWEST NEBRASKA

CITY           SKY/WX    TMP DP  RH WIND       PRES   REMARKS
NORTH PLATTE   SUNNY     23  14  68 W10       30.16R WCI  12
IMPERIAL       SUNNY     27  13  55 W7        30.16S WCI  19
LEXINGTON      SUNNY     27  19  71 SW5       30.19R WCI  21
MCCOOK         SUNNY     26  15  63 W7        30.20S WCI  18
OGALLALA       SUNNY     22  13  67 W7        30.14S WCI  13
$$

NEZ005>010-023>029-035>040-094-272300-
NORTH CENTRAL NEBRASKA

CITY           SKY/WX    TMP DP  RH WIND       PRES   REMARKS
VALENTINE      CLEAR     23  14  68 SW7       30.09F WCI  15
AINSWORTH      CLEAR     22  14  71 SW6       30.10S WCI  14
BROKEN BOW     SUNNY     24  16  71 W5        30.14F WCI  18
O`NEILL        CLEAR     22  17  83 W6        30.15R WCI  14
ORD            CLEAR     24  15  68 W8        30.17R WCI  15
THEDFORD       SUNNY     29  19  66 SW7       30.11S WCI  22
$$

NEZ041-046>049-061>064-073>077-083>087-272300-
SOUTH CENTRAL NEBRASKA

CITY           SKY/WX    TMP DP  RH WIND       PRES   REMARKS
GRAND ISLAND   CLEAR     25  15  66 SW6       30.22R WCI  18
AURORA         CLEAR     26  16  65 W7        30.21S WCI  19
HASTINGS       SUNNY     24  15  68 W6        30.20S WCI  17
HEBRON         SUNNY     28  17  61 W7        30.25F WCI  21
HOLDREGE       SUNNY     26  17  68 W6        30.20S WCI  19
KEARNEY *      SUNNY     25  16  68 W8        30.20S WCI  16
YORK           CLEAR     25  18  74 W8        30.22S WCI  16
$$

NEZ011>018-030>034-042>045-272300-
NORTHEAST NEBRASKA

CITY           SKY/WX    TMP DP  RH WIND       PRES   REMARKS
NORFOLK        CLEAR     21  14  74 SW5       30.18S WCI  15
ALBION         CLEAR     27  15  61 W5        30.18S WCI  21
BLAIR          CLEAR     25  15  66 W6        30.22R WCI  18
COLUMBUS *     CLEAR     25  12  58 SW7       30.23S WCI  17
FREMONT        CLEAR     24  17  72 W7        30.24R WCI  16
TEKAMAH        CLEAR     24  14  65 W7        30.24R WCI  16
WAYNE          CLEAR     20  13  73 W8        30.20S WCI  11
$$

NEZ050>053-065>068-078-088>093-272300-
SOUTHEAST NEBRASKA

CITY           SKY/WX    TMP DP  RH WIND       PRES   REMARKS
LINCOLN        CLEAR     27  16  63 W8        30.26R WCI  19
OMAHA EPPLEY   PTCLDY    26  17  68 W9        30.25R WCI  17
BEATRICE       CLEAR     28  19  67 NW12      30.25R WCI  18
FALLS CITY     MOCLDY    30  19  63 W10       30.25R WCI  21
NEBRASKA CITY  CLEAR     28  18  64 NW10      30.24R WCI  19
PLATTSMOUTH    CLEAR     26  16  64 NW9       30.23S WCI  17
$$

NEZ044-045-051>053-067-272300-
OMAHA AREA

CITY           SKY/WX    TMP DP  RH WIND       PRES   REMARKS
OMAHA EPPLEY   PTCLDY    26  17  68 W9        30.25R WCI  17
BLAIR          CLEAR     25  15  66 W6        30.22R WCI  18
FREMONT        CLEAR     24  17  72 W7        30.24R WCI  16
MILLARD        CLEAR     26  16  63 NW5       30.24S WCI  21
OFFUTT AFB     CLEAR     27  17  65 W6        30.24R WCI  20
PLATTSMOUTH    CLEAR     26  16  64 NW9       30.23S WCI  17
WAHOO          FAIR      26  15  64 W7        30.24R WCI  18
$$



USA.gov is the U.S. government's official web portal to all federal, state and local government web resources and services.